Temperature
18 18 18 19 19 20 20 20 19 20 20 21 21 21 20 20 21 21 21 22 22 21 21 20 20 20 20 20 19 18 18 17 17 16 16 16 15 15 15 15 14 14 14 14
18 18 18 19 20 20 20 19 19 19 19 20 19 18 19 20 20 21 21 21 21 21 20 20 19 19 19 19 19 18 18 17 16 16 16 16 16 15 15 15 14 14 14 14
17 18 18 18 18 18 18 18 18 17 17 17 17 18 19 19 20 20 21 20 20 20 20 19 19 18 18 18 18 18 17 17 16 16 16 16 16 16 16 15 15 14 14 14
16 17 16 17 18 17 18 17 17 17 17 17 17 19 19 17 18 19 19 19 18 18 18 18 18 18 19 19 18 17 17 16 16 16 16 16 16 16 16 15 15 15 15 14
16 16 17 17 15 14 16 17 16 16 16 16 16 21 20 16 15 16 16 17 17 17 17 18 18 18 18 18 17 17 16 16 16 16 16 16 16 16 16 15 15 15 15 15
13 13 14 11 11 13 17 16 15 15 16 15 16 19 19 15 14 15 15 16 16 17 17 18 17 17 17 16 15 15 15 15 15 15 15 15 15 15 15 15 15 15 14 14
10 11 11 8 8 13 13 11 13 14 14 15 15 16 15 14 14 14 15 15 15 16 17 16 16 15 15 14 13 13 13 13 13 14 14 14 14 14 14 15 15 14 14 14
10 9 8 8 8 9 9 10 12 13 14 14 14 14 15 14 14 14 14 14 14 15 16 15 14 14 13 12 12 12 12 12 12 12 12 13 13 13 13 13 13 13 13 13
11 10 9 8 8 8 9 10 11 12 13 14 14 15 15 15 14 14 14 14 14 14 14 13 13 13 13 12 12 12 11 11 11 11 11 11 11 11 12 12 12 12 12 12
12 11 10 9 8 8 9 9 11 12 13 14 14 14 15 15 15 15 15 14 14 13 13 13 13 13 13 12 12 12 11 11 11 11 10 10 10 10 10 11 11 11 11 11
11 11 10 10 9 8 9 9 10 12 13 13 14 14 15 15 15 15 15 14 14 13 13 13 13 13 13 13 12 12 11 11 11 10 10 10 10 10 10 10 11 11 11 11
9 9 9 9 9 9 9 9 10 11 12 13 14 14 14 15 15 15 15 14 14 14 13 13 13 13 13 13 12 12 12 11 11 10 10 10 10 11 11 11 11 11 11 11
8 8 8 9 9 9 9 9 10 11 12 13 14 14 14 15 15 15 15 15 15 14 14 13 13 13 13 13 12 11 11 11 10 10 10 10 10 11 11 11 11 11 11 11
8 8 9 9 9 9 9 9 10 11 12 13 14 14 14 14 15 15 15 16 15 15 14 14 14 13 13 13 12 12 11 11 11 10 10 10 10 10 10 10 10 10 10 10
9 8 8 9 9 9 9 9 9 10 12 13 14 14 14 14 15 15 15 16 16 15 14 14 14 14 13 13 12 11 11 11 10 10 10 10 10 10 10 10 10 10 10 9
9 9 9 9 9 9 9 9 9 10 11 13 15 15 15 15 15 15 16 16 16 15 15 15 14 14 14 13 12 11 11 11 11 10 10 10 10 10 10 10 10 9 9 9
8 9 9 8 8 8 8 8 9 9 11 13 15 16 16 16 16 16 16 16 17 16 15 15 15 14 14 13 12 11 11 11 11 10 10 10 10 10 10 10 10 9 9 9
8 8 8 8 8 8 8 8 9 9 10 12 15 16 16 16 16 16 17 17 17 17 16 16 15 15 14 13 12 11 11 10 10 10 10 10 10 10 10 10 9 9 9 9
8 8 8 8 8 8 8 8 9 9 10 12 15 16 17 17 17 17 17 17 17 17 17 17 16 15 14 13 12 11 11 10 10 10 10 10 10 10 10 10 9 9 9 9
8 8 8 8 8 8 8 9 9 9 9 12 15 16 17 17 18 18 18 18 18 18 17 17 16 15 14 13 12 11 10 10 10 10 10 10 10 10 10 10 10 9 9 9
8 8 8 8 8 9 9 9 9 9 9 12 14 16 18 18 18 19 19 19 18 18 17 17 16 15 14 13 12 11 10 10 10 10 10 10 10 10 10 10 10 10 9 9
8 8 8 8 8 9 9 9 9 9 10 12 14 16 18 18 19 19 19 19 18 18 18 17 17 16 14 13 12 11 10 10 10 10 10 10 10 10 10 10 10 9 9 9
8 8 8 8 8 9 9 10 10 10 10 11 14 16 18 18 19 19 19 19 19 18 18 17 17 16 14 13 12 11 10 10 10 10 10 10 10 10 10 9 9 9 9 9
8 8 8 8 8 9 9 10 10 10 11 11 13 15 17 18 19 19 19 19 18 18 18 17 17 15 14 13 11 10 10 10 10 10 10 10 10 9 9 9 9 9 8 8
8 8 8 8 8 8 9 9 10 11 11 12 13 14 16 17 18 18 18 18 18 18 18 17 16 15 13 12 11 10 10 9 9 9 9 9 9 9 9 9 8 8 8 8
8 8 8 8 8 8 8 9 10 10 11 12 13 14 16 17 18 18 18 18 18 18 18 17 16 14 13 12 11 10 10 9 9 9 9 9 9 8 8 8 8 8 8 8
8 8 8 8 8 8 8 9 9 10 10 11 12 14 15 17 17 18 18 18 18 17 17 17 16 14 13 12 11 10 10 9 9 9 8 8 8 8 8 8 8 8 8 8
Wind_Speed
10 11 11 13 13 13 13 12 12 14 15 16 17 19 20 20 19 17 15 13 11 9 6 6 8 10 11 11 11 11 11 11 10 9 8 7 7 8 9 9 9 9 9 8
14 12 12 15 14 12 9 7 7 10 12 14 22 21 20 19 16 15 13 12 10 8 5 4 7 9 9 9 9 10 10 9 8 8 8 8 8 9 9 10 10 10 10 10
13 12 13 8 5 6 7 10 9 10 14 21 23 21 16 12 10 10 9 8 6 3 1 3 5 7 7 7 7 7 7 7 7 8 9 9 9 9 10 10 11 11 11 11
8 8 5 4 9 9 6 12 17 15 18 20 22 16 8 11 10 8 6 4 4 5 6 7 7 7 6 5 4 3 4 5 6 7 8 8 9 10 10 9 10 10 11 11
5 6 6 4 11 14 6 6 20 22 23 25 26 6 13 19 14 9 7 7 8 9 10 11 10 9 8 7 6 4 3 2 2 4 6 7 9 10 9 9 9 9 9 10
4 5 1 10 25 24 7 1 22 24 24 25 24 14 14 19 13 10 10 10 10 11 12 12 11 10 10 10 9 8 7 6 4 2 3 5 7 8 7 8 8 8 8 8
6 4 3 14 28 16 5 9 21 22 22 21 17 13 16 13 7 8 8 8 9 10 11 10 10 10 11 10 9 8 7 7 7 5 3 1 3 4 6 7 8 8 8 7
6 6 5 16 17 10 10 17 21 22 21 21 19 18 13 6 3 5 6 6 7 8 9 9 9 9 10 9 7 6 7 7 8 7 6 4 2 1 3 6 7 8 8 7
4 4 6 8 10 13 14 20 22 22 22 20 19 17 12 4 0 2 4 5 5 7 8 7 7 7 7 6 6 6 6 7 6 6 6 5 4 3 3 4 5 6 7 7
6 4 9 10 10 15 18 20 22 21 20 19 18 17 11 4 3 3 3 4 3 4 4 4 4 5 5 4 4 5 6 6 6 6 6 6 5 3 3 4 5 5 6 6
7 9 11 9 15 19 21 22 21 19 18 17 17 16 12 5 5 4 4 4 3 3 1 1 3 4 4 3 3 4 4 5 5 6 6 6 6 6 4 5 4 2 2 2
6 10 12 17 17 19 21 21 21 19 18 17 16 15 12 5 5 5 5 5 4 3 3 2 2 4 3 2 2 3 4 5 4 5 5 5 5 6 11 10 10 9 8 6
8 13 15 16 16 17 18 20 20 18 16 16 15 14 12 6 4 6 6 6 6 5 5 4 3 2 2 2 1 3 4 3 3 3 3 3 3 4 5 6 9 11 10 9
10 12 12 15 17 17 18 19 18 17 14 12 12 12 11 7 5 7 8 8 7 6 6 5 3 1 1 2 1 2 3 3 2 2 2 1 2 2 2 3 4 5 7 8
10 13 15 17 16 16 17 17 17 15 14 13 12 11 11 9 7 8 9 9 8 7 7 6 4 2 3 3 2 1 1 2 2 2 1 2 2 2 2 4 4 4 3 4
14 14 14 15 17 17 17 18 17 17 15 14 13 12 12 11 8 8 9 10 10 10 9 7 5 4 5 5 4 2 2 3 2 1 2 2 2 2 3 4 4 4 4 3
13 15 16 17 18 19 18 17 17 17 16 15 14 14 13 10 7 7 10 11 11 9 8 7 5 5 7 6 5 3 3 4 3 2 1 2 2 3 4 4 4 4 4 4
11 13 14 15 16 17 18 17 16 17 16 15 15 13 11 9 7 6 9 10 10 9 9 7 6 7 8 8 6 4 4 4 4 3 2 2 2 3 3 4 4 4 4 3
12 13 14 15 15 15 16 16 17 17 16 14 13 12 11 9 7 5 7 9 11 11 9 8 9 9 9 8 6 5 5 5 4 3 3 3 3 3 3 3 4 4 4 3
12 13 14 15 15 14 15 15 16 15 15 14 13 12 10 8 6 5 6 8 9 6 6 9 11 10 10 10 8 6 6 5 4 4 4 4 4 4 4 4 4 4 4 4
12 13 14 14 15 15 14 15 15 16 15 14 13 12 11 9 7 6 6 7 6 7 8 11 10 9 10 10 10 7 6 5 5 4 5 5 4 4 4 5 4 4 4 4
12 13 13 14 14 15 14 14 14 15 15 14 13 12 10 9 8 7 7 6 3 9 8 8 9 11 12 12 8 7 7 6 5 4 4 4 4 4 4 4 4 4 4 4
12 13 13 14 14 15 14 13 15 15 15 15 14 12 11 10 7 6 5 4 5 10 8 8 12 17 16 11 8 8 7 6 5 5 4 4 4 4 4 4 4 4 4 4
12 13 13 14 14 13 14 14 15 14 15 14 12 12 11 9 7 5 5 3 7 10 7 12 19 19 14 9 8 8 8 7 6 5 4 4 4 4 4 5 4 4 4 4
13 13 14 14 13 11 12 14 14 14 14 13 14 13 9 6 6 5 4 4 8 10 8 15 20 18 12 8 9 8 8 7 6 6 5 5 5 5 5 5 4 4 4 4
12 11 11 12 12 11 10 10 10 11 12 13 14 12 10 8 6 5 3 5 10 10 10 12 14 13 9 9 9 8 8 8 7 6 6 5 6 5 5 5 5 4 4 5
12 11 10 10 10 9 9 9 10 11 11 13 15 13 11 8 6 3 3 5 8 9 10 12 12 11 10 9 9 9 8 8 7 6 6 5 5 5 6 6 5 5 5 5
Wind_Direction
306 304 300 296 293 287 278 274 280 296 304 309 319 315 304 295 290 287 285 286 291 293 280 231 208 200 193 189 190 190 194 202 209 212 211 213 209 210 210 208 208 204 198 199
299 300 304 293 289 287 283 289 295 309 311 330 321 310 299 290 283 279 279 283 293 296 280 223 198 188 183 187 191 196 206 215 215 218 214 215 214 213 211 208 211 207 208 207
292 303 301 286 15 25 70 60 28 356 334 327 323 319 317 312 296 287 290 298 310 323 43 160 163 163 168 179 185 202 213 221 218 218 218 219 215 213 210 209 209 212 215 214
279 289 263 70 50 19 96 71 28 2 346 339 330 321 14 4 341 329 341 2 50 80 92 103 110 116 121 134 160 199 231 238 231 225 222 218 215 213 212 210 205 209 213 215
272 268 258 80 14 345 301 68 19 359 350 348 341 355 43 20 11 17 39 66 77 83 89 88 88 94 98 92 82 66 28 338 284 242 229 220 216 216 212 209 206 207 210 212
303 279 295 16 341 324 272 45 3 353 349 348 351 5 1 359 11 43 60 71 80 83 83 81 81 85 85 78 68 54 37 25 17 351 245 230 225 219 208 207 209 203 206 211
349 313 48 4 341 350 58 348 334 340 343 343 345 332 322 336 17 50 60 65 77 82 80 79 82 82 78 70 59 46 37 37 37 33 18 300 242 218 202 200 201 197 195 195
357 347 348 345 345 359 334 319 325 331 333 335 333 331 335 344 33 57 66 67 76 86 85 81 80 81 77 67 55 46 44 44 43 37 33 35 46 145 181 185 185 182 178 175
330 301 284 303 310 311 317 317 319 321 323 328 330 333 332 313 165 81 76 80 85 95 94 88 75 65 65 60 43 38 42 43 42 45 45 45 61 100 128 154 162 168 173 174
320 304 315 316 327 324 323 316 313 313 316 324 329 331 327 277 208 168 127 112 119 125 111 88 65 47 37 36 25 25 33 32 29 32 44 52 57 78 111 135 151 162 170 176
316 331 330 321 329 325 321 320 318 315 317 323 329 332 328 278 218 191 166 158 169 176 142 65 23 12 12 11 3 11 27 33 37 46 50 55 57 41 41 59 47 64 115 147
307 316 313 309 316 319 321 323 322 316 315 321 329 334 332 296 223 198 185 175 178 195 228 273 334 359 24 42 7 6 28 36 42 56 67 74 86 81 51 55 59 54 45 37
289 301 300 300 310 318 320 322 321 314 308 313 325 334 334 312 225 201 192 186 187 200 226 254 296 350 49 88 61 43 43 44 50 55 70 86 101 116 115 90 76 68 62 54
307 313 308 315 319 321 323 323 322 317 313 314 322 329 333 319 244 211 200 190 190 203 225 243 264 298 123 146 144 81 59 66 54 60 57 87 94 87 102 127 121 91 69 58
319 320 312 313 318 326 329 329 329 328 327 324 324 326 327 321 278 229 205 188 189 207 224 233 243 222 176 188 191 132 84 74 67 61 62 84 93 93 91 92 99 103 102 83
320 322 326 327 329 331 334 335 332 329 326 321 319 319 320 315 291 241 209 194 197 212 223 228 233 210 182 192 192 166 126 77 29 69 110 110 106 98 98 105 108 105 98 95
323 329 334 333 330 329 330 330 328 326 322 317 313 312 310 308 292 236 215 206 208 219 225 227 223 189 182 192 195 183 163 152 177 201 121 102 98 100 106 112 109 104 93 75
313 315 321 324 323 322 323 326 328 326 321 315 309 303 300 301 298 258 222 209 208 216 222 218 201 180 180 186 191 184 178 175 181 173 152 132 114 120 124 123 121 118 111 114
311 314 319 323 322 318 319 323 325 325 323 319 311 302 297 293 293 271 224 210 211 216 214 199 174 180 176 174 175 181 179 176 178 172 161 148 161 137 129 124 123 121 119 121
309 314 317 321 324 322 321 323 325 326 327 324 316 305 296 290 290 270 226 222 222 215 179 161 169 175 169 168 181 179 175 175 173 165 162 163 155 140 128 122 120 123 126 124
310 313 316 321 323 324 324 324 327 329 330 328 320 311 302 293 285 268 239 234 219 190 165 156 165 164 163 162 183 175 171 167 164 158 155 156 152 149 140 132 129 125 116 106
312 312 313 317 321 324 326 325 327 329 330 330 326 319 311 299 286 267 245 239 199 165 166 166 164 154 154 159 173 170 169 166 161 157 160 161 160 159 148 139 133 125 115 107
310 310 310 313 317 320 322 326 329 331 332 332 330 326 317 304 290 273 268 218 187 174 174 163 148 145 153 167 168 168 168 168 166 168 171 167 160 150 140 137 128 125 119 108
307 308 309 310 311 316 324 328 328 329 330 330 331 327 319 308 295 270 265 193 172 163 169 147 147 152 163 169 167 169 168 166 168 171 169 164 151 142 134 129 124 119 115 109
300 303 305 309 311 316 320 323 325 329 332 335 336 336 330 314 298 304 277 204 162 161 152 154 155 158 166 166 169 169 167 165 165 164 165 160 148 141 137 134 134 131 122 107
295 297 298 298 301 303 311 319 323 326 332 335 337 337 334 326 310 291 246 184 166 163 153 153 159 167 169 166 167 167 163 158 160 166 165 161 155 150 144 140 136 130 120 113
289 288 288 291 296 303 309 313 317 323 328 332 332 329 328 325 316 291 216 171 164 167 159 157 161 165 162 162 165 168 166 166 168 169 170 168 163 157 152 149 141 132 123 118
Height
1497 1495 1492 1489 1486 1483 1482 1482 1486 1479 1476 1471 1470 1470 1467 1464 1462 1460 1459 1460 1460 1459 1459 1458 1460 1462 1466 1469 1471 1473 1475 1477 1478 1480 1481 1482 1483 1483 1485 1487 1489 1491 1492 1494
1495 1490 1489 1487 1481 1478 1477 1478 1480 1481 1478 1475 1475 1470 1464 1459 1457 1456 1456 1456 1456 1455 1455 1455 1457 1460 1464 1467 1469 1471 1473 1474 1476 1477 1478 1479 1480 1481 1482 1483 1485 1487 1489 1491
1496 1489 1488 1484 1482 1481 1482 1484 1487 1489 1487 1481 1472 1465 1459 1455 1453 1453 1453 1453 1453 1452 1452 1454 1457 1460 1462 1465 1467 1469 1470 1472 1472 1473 1474 1475 1476 1478 1479 1480 1482 1484 1486 1488
1495 1493 1497 1489 1484 1486 1485 1487 1490 1489 1486 1481 1473 1461 1458 1456 1453 1452 1451 1451 1451 1452 1452 1454 1457 1459 1462 1464 1465 1466 1467 1468 1469 1469 1470 1471 1472 1474 1476 1477 1479 1480 1482 1484
1496 1494 1487 1488 1494 1497 1491 1489 1492 1489 1484 1477 1469 1455 1456 1457 1455 1453 1452 1452 1452 1454 1455 1456 1458 1460 1462 1463 1463 1464 1464 1464 1464 1464 1465 1466 1468 1469 1471 1473 1475 1477 1479 1481
1505 1506 1502 1510 1506 1494 1489 1491 1495 1492 1487 1481 1473 1462 1463 1463 1460 1457 1456 1456 1456 1457 1458 1459 1460 1461 1462 1462 1462 1462 1461 1461 1460 1460 1460 1461 1462 1464 1465 1468 1470 1472 1474 1476
1518 1515 1510 1521 1514 1497 1502 1511 1503 1497 1493 1487 1482 1480 1474 1468 1465 1463 1462 1461 1461 1461 1461 1461 1462 1463 1463 1463 1462 1461 1460 1459 1458 1457 1457 1456 1457 1458 1460 1462 1464 1467 1469 1471
1525 1525 1527 1525 1520 1519 1519 1513 1506 1500 1495 1489 1484 1478 1473 1471 1469 1467 1466 1465 1465 1465 1464 1464 1465 1465 1465 1464 1463 1461 1460 1459 1457 1456 1455 1454 1454 1454 1455 1457 1459 1462 1465 1467
1528 1530 1529 1526 1524 1522 1518 1512 1505 1499 1493 1489 1483 1478 1474 1472 1471 1469 1468 1468 1468 1468 1467 1467 1467 1467 1467 1465 1464 1463 1461 1460 1458 1457 1455 1454 1453 1453 1453 1455 1457 1460 1462 1465
1525 1524 1524 1523 1521 1517 1514 1509 1503 1497 1492 1487 1482 1477 1473 1472 1471 1470 1469 1469 1470 1470 1471 1470 1469 1468 1468 1466 1465 1464 1463 1461 1460 1459 1457 1455 1454 1454 1455 1456 1458 1460 1462 1464
1526 1524 1522 1519 1517 1513 1508 1503 1498 1493 1490 1486 1481 1476 1473 1471 1471 1470 1470 1469 1470 1471 1472 1472 1471 1470 1468 1466 1466 1465 1464 1463 1462 1460 1458 1457 1456 1456 1457 1458 1459 1461 1463 1465
1529 1526 1524 1518 1514 1510 1505 1499 1494 1490 1486 1483 1480 1475 1472 1470 1470 1470 1470 1470 1470 1471 1472 1473 1472 1470 1468 1467 1466 1466 1465 1464 1463 1462 1461 1460 1459 1459 1460 1460 1461 1462 1463 1464
1528 1524 1520 1516 1512 1507 1502 1496 1491 1487 1484 1481 1478 1475 1471 1470 1470 1470 1469 1470 1470 1472 1473 1473 1472 1471 1469 1467 1467 1466 1466 1465 1464 1464 1463 1463 1462 1462 1462 1462 1462 1463 1463 1463
1525 1521 1516 1512 1508 1503 1498 1492 1488 1484 1481 1479 1477 1474 1471 1469 1469 1469 1469 1470 1470 1472 1472 1473 1472 1471 1470 1468 1468 1467 1467 1466 1465 1465 1464 1464 1464 1464 1463 1463 1463 1462 1462 1462
1522 1519 1514 1508 1503 1499 1494 1489 1485 1481 1477 1476 1474 1472 1470 1468 1468 1468 1468 1469 1470 1471 1472 1472 1472 1471 1470 1469 1468 1468 1467 1467 1466 1465 1465 1465 1464 1464 1464 1463 1463 1463 1462 1462
1518 1514 1510 1505 1500 1495 1491 1486 1482 1477 1474 1472 1471 1470 1468 1465 1464 1465 1466 1467 1468 1469 1471 1471 1471 1470 1469 1468 1468 1468 1467 1467 1466 1466 1466 1466 1465 1465 1465 1464 1464 1464 1464 1463
1514 1510 1506 1501 1497 1492 1488 1484 1480 1475 1472 1469 1468 1467 1465 1463 1462 1462 1463 1464 1465 1467 1468 1469 1469 1468 1468 1468 1468 1468 1467 1467 1466 1467 1467 1467 1467 1466 1466 1465 1465 1466 1466 1465
1512 1509 1505 1501 1495 1490 1485 1481 1477 1473 1469 1466 1465 1464 1463 1461 1460 1460 1460 1461 1462 1464 1465 1466 1466 1466 1466 1466 1466 1467 1466 1466 1467 1467 1467 1467 1467 1467 1467 1467 1467 1467 1467 1467
1509 1506 1502 1498 1493 1488 1483 1478 1474 1470 1466 1463 1461 1461 1460 1459 1458 1457 1457 1458 1459 1460 1462 1463 1464 1464 1464 1464 1464 1465 1465 1466 1466 1466 1466 1467 1467 1467 1467 1467 1468 1468 1468 1468
1506 1503 1499 1495 1490 1485 1480 1476 1471 1467 1463 1459 1458 1457 1457 1456 1456 1455 1454 1455 1456 1457 1459 1460 1461 1461 1462 1462 1463 1464 1464 1465 1465 1466 1466 1467 1468 1468 1468 1468 1468 1469 1469 1469
1502 1499 1495 1491 1487 1482 1478 1473 1469 1464 1460 1456 1454 1453 1453 1453 1453 1452 1452 1452 1453 1454 1456 1457 1458 1459 1460 1460 1461 1463 1463 1464 1465 1466 1467 1467 1468 1469 1469 1469 1469 1469 1470 1470
1499 1495 1492 1488 1483 1479 1475 1471 1467 1462 1457 1453 1450 1449 1449 1449 1449 1449 1449 1450 1450 1451 1453 1455 1456 1457 1458 1459 1460 1461 1462 1464 1465 1466 1466 1467 1468 1469 1469 1470 1470 1470 1470 1470
1494 1491 1488 1485 1480 1476 1472 1468 1464 1460 1455 1450 1446 1445 1445 1445 1445 1446 1446 1446 1447 1448 1450 1452 1453 1455 1456 1457 1459 1460 1461 1463 1464 1465 1466 1467 1468 1469 1469 1470 1470 1470 1470 1469
1490 1487 1484 1481 1477 1473 1469 1465 1461 1457 1453 1448 1444 1442 1441 1441 1442 1442 1443 1443 1444 1446 1448 1450 1451 1453 1455 1456 1458 1459 1460 1462 1463 1465 1466 1467 1468 1469 1469 1469 1469 1469 1469 1469
1484 1482 1480 1477 1473 1470 1465 1461 1458 1454 1450 1446 1442 1439 1438 1438 1438 1439 1439 1440 1442 1444 1446 1448 1450 1451 1453 1455 1457 1458 1459 1461 1462 1464 1465 1467 1467 1468 1468 1468 1469 1468 1468 1467
1479 1477 1475 1472 1470 1466 1462 1458 1455 1451 1447 1443 1439 1437 1435 1435 1435 1436 1436 1438 1440 1442 1444 1446 1448 1450 1452 1454 1455 1457 1458 1460 1461 1463 1465 1466 1467 1467 1467 1468 1468 1468 1467 1467
1473 1471 1469 1467 1465 1462 1459 1456 1452 1449 1445 1442 1437 1435 1433 1433 1433 1433 1434 1436 1438 1440 1442 1444 1446 1448 1450 1452 1454 1456 1458 1459 1461 1462 1463 1464 1465 1466 1466 1467 1467 1467 1467 1467